Weather History for Hill City, KS

Change the Weather History Date:

Saturday, August 3, 2013

  Actual Average Record
Temperature  
Mean Temperature 73 °F 79 °F  
Max Temperature 76 °F 92 °F 110 °F (1934)
Min Temperature 69 °F 66 °F 46 °F (1973)
Cooling Degree Days 7    
Growing Degree Days 22 (Base 50)    
Moisture  
Dew Point 67 °F    
Average Humidity 83    
Maximum Humidity 96    
Minimum Humidity 73    
Precipitation  
Precipitation 0.00 in 0.10 in 0.75 in (2000)
Month to date precipitation 0.00 0.29  
Year to date precipitation 12.18 15.26  
Sea Level Pressure  
Sea Level Pressure 30.04 in    
Wind  
Wind Speed 13 mph (ENE)    
Max Wind Speed 18 mph    
Max Gust Speed 28 mph    
Visibility 9 miles    
Events      
T = Trace of Precipitation, MM = Missing Value Source: NWS Daily Summary

Daily Weather History Graph

Daily Weather History Graph

Search for Another Location

Airport:

Trip Planner

Search our weather history database for the weather conditions in past years. The results will help you decide how hot, cold, wet, or windy it might be!

Date:

Astronomy

Aug. 03, 2013 Rise Set
Actual Time 6:41 AM CDT 8:49 PM CDT
Civil Twilight 6:11 AM CDT 9:18 PM CDT
Nautical Twilight 5:35 AM CDT 9:55 PM CDT
Astronomical Twilight 4:55 AM CDT 10:34 PM CDT
Moon 3:52 AM CDT (8/3) 6:32 PM CDT (8/3)
Length of Visible Light 15h 07m
Length of Day
14h 07m
Waning Crescent, 9% of the Moon is Illuminated
Aug 3
Waning Crescent
Aug 6
New
Aug 14
First Quarter
Aug 20
Full
Aug 28
Last Quarter

Hourly Weather History & Observations

Time (CDT) Temp. Dew Point Humidity Pressure Visibility Wind Dir Wind Speed Gust Speed Precip Events Conditions
12:53 AM 73.9 °F 69.1 °F 85% 29.92 in 10.0 mi ENE 13.8 mph - N/A   Overcast
1:11 AM 73.4 °F 69.8 °F 88% 29.99 in 10.0 mi ENE 15.0 mph 20.7 mph N/A   Overcast
1:53 AM 73.9 °F 69.1 °F 85% 29.92 in 10.0 mi NE 12.7 mph - N/A   Overcast
2:53 AM 73.0 °F 69.1 °F 87% 29.94 in 10.0 mi ENE 11.5 mph - N/A   Overcast
3:53 AM 73.0 °F 68.0 °F 84% 29.93 in 10.0 mi ENE 9.2 mph - N/A   Overcast
4:53 AM 72.0 °F 68.0 °F 87% 29.94 in 10.0 mi ENE 11.5 mph - N/A   Overcast
5:53 AM 71.1 °F 68.0 °F 90% 29.96 in 10.0 mi ENE 11.5 mph - N/A   Overcast
6:26 AM 69.8 °F 68.0 °F 94% 30.05 in 7.0 mi NE 12.7 mph 19.6 mph N/A   Overcast
6:53 AM 69.1 °F 68.0 °F 96% 29.98 in 4.0 mi ENE 13.8 mph - N/A   Overcast
7:53 AM 70.0 °F 66.9 °F 90% 29.99 in 8.0 mi East 10.4 mph - N/A   Overcast
8:53 AM 69.1 °F 66.0 °F 90% 30.01 in 7.0 mi ENE 15.0 mph 20.7 mph N/A   Overcast
9:53 AM 69.1 °F 66.0 °F 90% 30.01 in 8.0 mi ENE 11.5 mph - N/A   Overcast
10:53 AM 70.0 °F 66.0 °F 87% 30.04 in 9.0 mi ENE 11.5 mph - N/A   Overcast
11:21 AM 71.6 °F 66.2 °F 83% 30.10 in 10.0 mi ENE 12.7 mph - N/A   Overcast
11:53 AM 71.1 °F 64.9 °F 81% 30.05 in 10.0 mi ENE 11.5 mph - N/A   Overcast
12:53 PM 73.9 °F 66.0 °F 76% 30.07 in 10.0 mi NE 13.8 mph 19.6 mph N/A   Overcast
1:53 PM 73.9 °F 66.0 °F 76% 30.07 in 10.0 mi ENE 17.3 mph 23.0 mph N/A   Overcast
2:53 PM 75.0 °F 66.0 °F 73% 30.09 in 10.0 mi ENE 16.1 mph 25.3 mph N/A   Overcast
3:53 PM 73.9 °F 64.9 °F 73% 30.09 in 10.0 mi NE 18.4 mph 27.6 mph N/A   Overcast
4:53 PM 72.0 °F 64.9 °F 78% 30.08 in 10.0 mi ENE 17.3 mph 25.3 mph N/A   Overcast
5:53 PM 75.9 °F 66.9 °F 74% 30.04 in 10.0 mi East 17.3 mph 26.5 mph N/A   Scattered Clouds
6:53 PM 75.9 °F 66.9 °F 74% 30.05 in 10.0 mi East 15.0 mph - N/A   Scattered Clouds
7:16 PM 75.2 °F 66.2 °F 73% 30.12 in 10.0 mi East 11.5 mph - N/A   Mostly Cloudy
7:53 PM 75.0 °F 66.9 °F 76% 30.05 in 10.0 mi East 12.7 mph - N/A   Overcast
8:14 PM 73.4 °F 66.2 °F 78% 30.12 in 10.0 mi East 10.4 mph - N/A   Mostly Cloudy
8:53 PM 73.0 °F 66.9 °F 81% 30.06 in 10.0 mi East 8.1 mph - N/A   Clear
9:53 PM 72.0 °F 68.0 °F 87% 30.09 in 10.0 mi Calm Calm - N/A   Clear
10:49 PM 71.6 °F 68.0 °F 88% 30.16 in 10.0 mi NE 8.1 mph - N/A   Mostly Cloudy
10:53 PM 72.0 °F 68.0 °F 87% 30.11 in 10.0 mi NE 6.9 mph - N/A   Mostly Cloudy
11:53 PM 72.0 °F 66.9 °F 84% 30.09 in 10.0 mi ENE 10.4 mph - N/A   Overcast